User: anonymous   Login
Location: Unspecified
(43.0730°N, 0.0000°E)
Time: 04:45:25
(UTC+00:00)
Language:

SL-14 DEB - Orbit

View from above orbital plane
View from above orbital plane
View from above satellite
View from above satellite

Ground track
Ground track

The orbit is defined by the following mean orbital elements,

1 39984U          26084.96045676 +.00000000 +00000-0 +13092-2 0 00006
2 39984  82.8298 343.0506 0011314   5.2228 354.9078 14.35408140    08
Epoch (UTC): 25 March 2026 23:03:03
Eccentricity: 0.0011314
inclination: 82.8298°
perigee height: 766 km
apogee height: 782 km
right ascension of ascending node: 343.0506°
argument of perigee: 5.2228°
revolutions per day: 14.35408140
mean anomaly at epoch: 354.9078°

The dashed part of the orbit path shows where the satellite is in the earth's shadow,  

DLR